Volk, WI

8:16 PM CDT on August 22, 2017 (GMT -0500)
Volk

Weather History for KVOK - August, 2013

Change the Weather History Date:

Thursday, August 22, 2013

  Actual Average Record
Temperature  
Mean Temperature 70 °F -  
Max Temperature 83 °F 76 °F 89 °F (2014)
Min Temperature 56 °F 60 °F 44 °F (2011)
Cooling Degree Days 4    
Growing Degree Days 20 (Base 50)    
Moisture  
Dew Point 63 °F    
Average Humidity 94    
Maximum Humidity 100    
Minimum Humidity 42    
Precipitation  
Precipitation 0.00 in - - ()
Sea Level Pressure  
Sea Level Pressure 30.05 in    
Wind  
Wind Speed 2 mph (NW)    
Max Wind Speed 12 mph    
Max Gust Speed -    
Visibility 4 miles    
Events Fog , Thunderstorm    
Averages and records for this station are not official NWS values.
T = Trace of Precipitation, MM = Missing Value Source: NWS Daily Summary

Daily Weather History Graph

Daily Weather History Graph

Search for Another Location

Airport or City:

Trip Planner

Search our weather history database for the weather conditions in past years. The results will help you decide how hot, cold, wet, or windy it might be!

Date:

Astronomy

Aug. 22, 2013 Rise Set
Actual Time 6:13 AM CDT 7:53 PM CDT
Civil Twilight 5:42 AM CDT 8:24 PM CDT
Nautical Twilight 5:05 AM CDT 9:00 PM CDT
Astronomical Twilight 4:25 AM CDT 9:40 PM CDT
Moon 8:30 PM CDT (8/22) 8:07 AM CDT (8/22)
Length of Visible Light 14h 41m
Length of Day
13h 40m
Waning Gibbous, 96% of the Moon is Illuminated
Aug 22
Waning Gibbous
Aug 28
Last Quarter
Sep 5
New
Sep 12
First Quarter
Sep 19
Full

Hourly Weather History & Observations

Time (CDT) Temp. Heat Index Dew Point Humidity Pressure Visibility Wind Dir Wind Speed Gust Speed Precip Events Conditions
12:03 AM 66.2 °F - 66.2 °F 100% 30.01 in 2.5 mi South 2.3 mph - N/A   Clear
12:08 AM 68.0 °F - 68.0 °F 100% 30.01 in 8.0 mi Calm Calm - N/A   Clear
12:18 AM 66.2 °F - 66.2 °F 100% 30.01 in 4.0 mi SSE 2.3 mph - N/A   Clear
12:23 AM 66.2 °F - 66.2 °F 100% 30.01 in 2.0 mi SSE 1.2 mph - N/A   Clear
12:28 AM 66.2 °F - 66.2 °F 100% 30.01 in 1.5 mi Calm Calm - N/A   Clear
12:33 AM 66.2 °F - 66.2 °F 100% 30.01 in 1.0 mi Calm Calm - N/A   Clear
12:38 AM 64.4 °F - 64.4 °F 100% 30.01 in 0.5 mi Calm Calm - N/A Fog Fog
12:43 AM 62.6 °F - 62.6 °F 100% 30.01 in 0.2 mi NNW 2.3 mph - N/A Fog Fog
12:48 AM 62.6 °F - 62.6 °F 100% 30.01 in 0.2 mi North 6.9 mph - N/A Fog Fog
12:53 AM 66.2 °F - 66.2 °F 100% 30.02 in 0.5 mi North 3.5 mph - N/A Fog Fog
12:58 AM 68.0 °F - 68.0 °F 100% 30.01 in 1.0 mi North 2.3 mph - N/A   Mist
1:03 AM 66.2 °F - 66.2 °F 100% 30.02 in 2.5 mi Calm Calm - N/A   Clear
1:08 AM 66.2 °F - 66.2 °F 100% 30.02 in 1.0 mi Calm Calm - N/A   Clear
1:13 AM 66.2 °F - 66.2 °F 100% 30.02 in 1.0 mi Calm Calm - N/A   Clear
1:18 AM 66.2 °F - 66.2 °F 100% 30.02 in 1.8 mi Calm Calm - N/A   Clear
1:23 AM 66.2 °F - 66.2 °F 100% 30.02 in 0.8 mi NNE 3.5 mph - N/A   Clear
1:28 AM 64.4 °F - 64.4 °F 100% 30.02 in 0.2 mi North 2.3 mph - N/A Fog Fog
1:38 AM 64.4 °F - 64.4 °F 100% 30.02 in 0.5 mi Calm Calm - N/A Fog Fog
1:48 AM 64.4 °F - 64.4 °F 100% 30.02 in 0.2 mi North 1.2 mph - N/A Fog Fog
1:58 AM 63.5 °F - 63.5 °F 100% 30.01 in 0.2 mi Calm Calm - N/A Fog Fog
2:03 AM 62.6 °F - 62.6 °F 100% 30.02 in 0.5 mi Calm Calm - N/A Fog Fog
2:13 AM 62.6 °F - 62.6 °F 100% 30.03 in 0.2 mi Calm Calm - N/A Fog Fog
2:43 AM 64.4 °F - 64.4 °F 100% 30.03 in 0.8 mi WNW 2.3 mph - N/A   Partly Cloudy
2:48 AM 64.4 °F - 64.4 °F 100% 30.03 in 1.0 mi WNW 1.2 mph - N/A   Scattered Clouds
2:53 AM 62.6 °F - 62.6 °F 100% 30.03 in 0.2 mi WNW 2.3 mph - N/A Fog Fog
2:58 AM 62.6 °F - 62.6 °F 100% 30.03 in 0.2 mi West 2.3 mph - N/A Fog Fog
3:13 AM 62.6 °F - 62.6 °F 100% 30.02 in 0.5 mi Calm Calm - N/A Fog Fog
3:28 AM 62.6 °F - 62.6 °F 100% 30.02 in 0.2 mi NW 3.5 mph - N/A Fog Fog
3:58 AM 63.0 °F - 63.0 °F 100% 30.03 in 0.2 mi WNW 1.2 mph - N/A Fog Fog
4:08 AM 62.6 °F - 62.6 °F 100% 30.03 in 0.5 mi Calm Calm - N/A Fog Fog
4:18 AM 62.6 °F - 62.6 °F 100% 30.03 in 0.8 mi WSW 2.3 mph - N/A   Clear
4:23 AM 64.4 °F - 64.4 °F 100% 30.03 in 3.0 mi Calm Calm - N/A   Clear
4:28 AM 64.4 °F - 64.4 °F 100% 30.04 in 9.0 mi Calm Calm - N/A   Clear
4:38 AM 62.6 °F - 62.6 °F 100% 30.04 in 1.8 mi Calm Calm - N/A   Clear
4:43 AM 62.6 °F - 62.6 °F 100% 30.04 in 0.8 mi Calm Calm - N/A   Clear
4:53 AM 64.4 °F - 64.4 °F 100% 30.05 in 0.5 mi West 1.2 mph - N/A Fog Fog
4:58 AM 63.1 °F - 63.1 °F 100% 30.04 in 0.5 mi Calm Calm - N/A Fog Fog
5:03 AM 62.6 °F - 62.6 °F 100% 30.04 in 0.2 mi Calm Calm - N/A Fog Fog
5:18 AM 62.6 °F - 62.6 °F 100% 30.03 in 0.5 mi Calm Calm - N/A Fog Fog
5:23 AM 62.6 °F - 62.6 °F 100% 30.03 in 1.0 mi NE 1.2 mph - N/A   Clear
5:28 AM 62.6 °F - 62.6 °F 100% 30.03 in 2.5 mi NNE 2.3 mph - N/A   Clear
5:33 AM 62.6 °F - 62.6 °F 100% 30.04 in 5.0 mi North 1.2 mph - N/A   Clear
5:38 AM 62.6 °F - 62.6 °F 100% 30.04 in 4.0 mi Calm Calm - N/A   Clear
5:43 AM 62.6 °F - 62.6 °F 100% 30.03 in 2.0 mi WSW 2.3 mph - N/A   Clear
5:48 AM 62.6 °F - 62.6 °F 100% 30.03 in 3.0 mi WNW 2.3 mph - N/A   Clear
5:53 AM 62.6 °F - 62.6 °F 100% 30.03 in 2.0 mi NW 2.3 mph - N/A   Clear
5:58 AM 62.6 °F - 62.6 °F 100% 30.04 in 1.0 mi NW 2.3 mph - N/A   Clear
6:03 AM 62.6 °F - 62.6 °F 100% 30.04 in 0.8 mi WNW 2.3 mph - N/A   Partly Cloudy
6:08 AM 62.6 °F - 62.6 °F 100% 30.04 in 0.5 mi West 1.2 mph - N/A Fog Fog
6:13 AM 62.6 °F - 62.6 °F 100% 30.04 in 0.5 mi West 2.3 mph - N/A Fog Fog
6:18 AM 62.6 °F - 62.6 °F 100% 30.04 in 1.5 mi West 2.3 mph - N/A   Mostly Cloudy
6:23 AM 62.6 °F - 62.6 °F 100% 30.05 in 7.0 mi WNW 2.3 mph - N/A   Mostly Cloudy
6:58 AM 61.7 °F - 61.7 °F 100% 30.04 in 4.0 mi Calm Calm - N/A   Mostly Cloudy
7:58 AM 64.4 °F - 64.4 °F 100% 30.07 in 10.0 mi West 3.5 mph - N/A   Overcast
8:58 AM 64.4 °F - 64.4 °F 100% 30.12 in - ENE 2.3 mph - N/A   Overcast
9:02 AM 64.4 °F - 64.4 °F 100% 30.11 in 10.0 mi ENE 2.3 mph - N/A Thunderstorm Thunderstorm
9:20 AM 64.4 °F - 64.4 °F 100% 30.12 in 10.0 mi WSW 8.1 mph - N/A   Overcast
9:58 AM 66.2 °F - 66.2 °F 100% 30.14 in 10.0 mi West 6.9 mph - N/A   Overcast
10:58 AM 69.8 °F - 64.4 °F 83% 30.13 in 10.0 mi Calm Calm - N/A   Overcast
11:58 AM 73.4 °F - 64.4 °F 73% 30.09 in 10.0 mi ENE 6.9 mph - N/A   Overcast
12:58 PM 75.2 °F - 60.8 °F 61% 30.06 in 10.0 mi East 11.5 mph - N/A   Mostly Cloudy
1:58 PM 78.8 °F - 59.0 °F 51% 30.08 in 10.0 mi ENE 9.2 mph - N/A   Mostly Cloudy
2:58 PM 82.4 °F 82.9 °F 60.8 °F 48% 30.08 in 10.0 mi Variable 3.5 mph - N/A   Mostly Cloudy
3:58 PM 82.4 °F 82.0 °F 57.2 °F 42% 30.08 in 10.0 mi Variable 4.6 mph - N/A   Scattered Clouds
4:58 PM 82.8 °F 82.5 °F 57.9 °F 43% 30.08 in 10.0 mi SSE 5.8 mph - N/A   Clear
5:58 PM 82.4 °F 82.0 °F 57.2 °F 42% 30.08 in 10.0 mi South 3.5 mph - N/A   Clear
6:58 PM 80.6 °F 81.1 °F 59.0 °F 48% 30.08 in 10.0 mi South 3.5 mph - N/A   Clear
7:58 PM 68.0 °F - 62.6 °F 83% 30.09 in 10.0 mi Calm Calm - N/A   Clear
8:58 PM 62.6 °F - 60.8 °F 94% 30.11 in 10.0 mi Calm Calm - N/A   Clear
9:58 PM 59.0 °F - 59.0 °F 100% 30.12 in 10.0 mi Calm Calm - N/A   Clear
10:58 PM 58.8 °F - 58.8 °F 100% 30.13 in 10.0 mi SE 4.6 mph - N/A   Clear
11:43 PM 57.2 °F - 57.2 °F 100% 30.12 in 7.0 mi ESE 3.5 mph - N/A   Clear
11:48 PM 57.2 °F - 57.2 °F 100% 30.12 in 4.0 mi SE 3.5 mph - N/A   Clear
11:53 PM 57.2 °F - 57.2 °F 100% 30.12 in 4.0 mi SSE 4.6 mph - N/A   Clear
11:58 PM 56.7 °F - 56.7 °F 100% 30.13 in 10.0 mi SE 4.6 mph - N/A   Clear